| time (UTC) | temp C | wind direction | speed KPH | gust KPH | rain 1hr cm | rain 24hr cm | rain mn cm | humidity % | barometer mb |
| 20260902161934 | 18 | 268 | 3.2 | 8.0 | 0.00 | 0.00 | 0.00 | 77 | 1017.3 |
| 20260902161436 | 18 | 258 | 3.2 | 9.7 | 0.00 | 0.00 | 0.00 | 77 | 1017.3 |
| 20260902160920 | 18 | 151 | 4.8 | 9.7 | 0.00 | 0.00 | 0.00 | 77 | 1017.3 |
| 20260902160423 | 18 | 107 | 3.2 | 9.7 | 0.00 | 0.00 | 0.00 | 77 | 1017.2 |
| 20260902155925 | 18 | 134 | 3.2 | 9.7 | 0.00 | 0.00 | 0.00 | 76 | 1017.2 |
| 20260902155432 | 18 | 196 | 3.2 | 9.7 | 0.00 | 0.00 | 0.00 | 76 | 1017.2 |
| 20260902154936 | 18 | 134 | 4.8 | 9.7 | 0.00 | 0.00 | 0.00 | 76 | 1017.2 |
| 20260902154422 | 18 | 160 | 4.8 | 9.7 | 0.00 | 0.00 | 0.00 | 76 | 1017.3 |
| 20260902153926 | 18 | 268 | 1.6 | 8.0 | 0.00 | 0.00 | 0.00 | 76 | 1017.2 |
| 20260902153428 | 18 | 158 | 1.6 | 8.0 | 0.00 | 0.00 | 0.00 | 77 | 1017.3 |
| 20260902152931 | 17 | 88 | 1.6 | 6.4 | 0.00 | 0.00 | 0.00 | 77 | 1017.3 |
| 20260902152436 | 17 | 99 | 1.6 | 8.0 | 0.00 | 0.00 | 0.00 | 77 | 1017.3 |
| 20260902151921 | 17 | 55 | 4.8 | 8.0 | 0.00 | 0.00 | 0.00 | 77 | 1017.3 |
| 20260902151425 | 17 | 101 | 1.6 | 6.4 | 0.00 | 0.00 | 0.00 | 78 | 1017.2 |
| 20260902150948 | 17 | 83 | 3.2 | 6.4 | 0.00 | 0.00 | 0.00 | 78 | 1017.3 |
| 20260902150428 | 17 | 168 | 3.2 | 6.4 | 0.00 | 0.00 | 0.00 | 78 | 1017.2 |
| 20260902145929 | 17 | 177 | 1.6 | 4.8 | 0.00 | 0.00 | 0.00 | 78 | 1017.2 |
| 20260902145434 | 17 | 116 | 1.6 | 4.8 | 0.00 | 0.00 | 0.00 | 79 | 1016.9 |
| 20260902144918 | 17 | 34 | 1.6 | 3.2 | 0.00 | 0.00 | 0.00 | 79 | 1016.8 |
| 20260902144446 | 17 | 209 | 1.6 | 3.2 | 0.00 | 0.00 | 0.00 | 79 | 1016.7 |
| 20260902143930 | 16 | 313 | 0.0 | 3.2 | 0.00 | 0.00 | 0.00 | 79 | 1016.7 |
| 20260902143430 | 16 | 45 | 0.0 | 3.2 | 0.00 | 0.00 | 0.00 | 78 | 1016.6 |
| 20260902142934 | 16 | 88 | 0.0 | 3.2 | 0.00 | 0.00 | 0.00 | 78 | 1016.5 |
| 20260902142446 | 16 | 104 | 1.6 | 3.2 | 0.00 | 0.00 | 0.00 | 78 | 1016.6 |
| 20260902141929 | 16 | 205 | 1.6 | 3.2 | 0.00 | 0.00 | 0.00 | 78 | 1016.6 |
| 20260902141435 | 16 | 177 | 1.6 | 3.2 | 0.00 | 0.00 | 0.00 | 78 | 1016.6 |
| 20260902140921 | 16 | 177 | 1.6 | 3.2 | 0.00 | 0.00 | 0.00 | 78 | 1016.6 |
| 20260902140424 | 16 | 177 | 1.6 | 3.2 | 0.00 | 0.00 | 0.00 | 78 | 1016.6 |
| 20260902135921 | 16 | 45 | 0.0 | 3.2 | 0.00 | 0.00 | 0.00 | 78 | 1016.6 |
| 20260902135425 | 17 | 134 | 0.0 | 3.2 | 0.00 | 0.00 | 0.00 | 77 | 1016.6 |
| 20260902134930 | 17 | 134 | 1.6 | 4.8 | 0.00 | 0.00 | 0.00 | 77 | 1016.6 |
| 20260902134434 | 17 | 222 | 1.6 | 4.8 | 0.00 | 0.00 | 0.00 | 77 | 1016.6 |
| 20260902133940 | 17 | 134 | 1.6 | 4.8 | 0.00 | 0.00 | 0.00 | 77 | 1016.5 |
| 20260902133421 | 17 | 151 | 1.6 | 4.8 | 0.00 | 0.00 | 0.00 | 77 | 1016.6 |
| 20260902132925 | 16 | 123 | 1.6 | 3.2 | 0.00 | 0.00 | 0.00 | 77 | 1016.6 |
| 20260902132429 | 16 | 240 | 1.6 | 3.2 | 0.00 | 0.00 | 0.00 | 77 | 1016.5 |
| 20260902131934 | 16 | 222 | 1.6 | 4.8 | 0.00 | 0.00 | 0.00 | 77 | 1016.4 |
| 20260902131449 | 16 | 27 | 1.6 | 4.8 | 0.00 | 0.00 | 0.00 | 77 | 1016.4 |
| 20260902130933 | 16 | 160 | 1.6 | 4.8 | 0.00 | 0.00 | 0.00 | 77 | 1016.4 |
| 20260902130436 | 16 | 147 | 3.2 | 4.8 | 0.00 | 0.00 | 0.00 | 77 | 1016.3 |
| 20260902125921 | 16 | 107 | 0.0 | 3.2 | 0.00 | 0.00 | 0.00 | 77 | 1016.3 |
| 20260902125427 | 16 | 268 | 1.6 | 3.2 | 0.00 | 0.00 | 0.00 | 77 | 1016.3 |
| 20260902124927 | 16 | 88 | 1.6 | 3.2 | 0.00 | 0.00 | 0.00 | 77 | 1016.4 |
| 20260902124433 | 16 | 330 | 1.6 | 4.8 | 0.00 | 0.00 | 0.00 | 77 | 1016.3 |
| 20260902123937 | 16 | 158 | 3.2 | 6.4 | 0.00 | 0.00 | 0.00 | 78 | 1016.2 |
| 20260902123441 | 16 | 1 | 1.6 | 6.4 | 0.00 | 0.00 | 0.00 | 78 | 1016.3 |
| 20260902122924 | 17 | 160 | 3.2 | 6.4 | 0.00 | 0.00 | 0.00 | 78 | 1016.2 |
| 20260902122430 | 17 | 196 | 1.6 | 8.0 | 0.00 | 0.00 | 0.00 | 78 | 1016.2 |
| 20260902121936 | 17 | 88 | 1.6 | 8.0 | 0.00 | 0.00 | 0.00 | 78 | 1016.2 |
| 20260902121434 | 17 | 160 | 1.6 | 9.7 | 0.00 | 0.00 | 0.00 | 78 | 1016.2 |
| 20260902120937 | 16 | 134 | 6.4 | 11.3 | 0.00 | 0.00 | 0.00 | 79 | 1016.3 |
| 20260902120439 | 16 | 177 | 3.2 | 11.3 | 0.00 | 0.00 | 0.00 | 79 | 1016.3 |
| 20260902115922 | 16 | 177 | 1.6 | 6.4 | 0.00 | 0.00 | 0.00 | 79 | 1016.3 |
| 20260902115443 | 16 | 120 | 1.6 | 4.8 | 0.00 | 0.00 | 0.00 | 80 | 1016.4 |
| 20260902114929 | 16 | 88 | 1.6 | 6.4 | 0.00 | 0.00 | 0.00 | 80 | 1016.2 |
| 20260902114431 | 16 | 134 | 3.2 | 6.4 | 0.00 | 0.00 | 0.00 | 80 | 1016.3 |
| 20260902113918 | 16 | 205 | 1.6 | 3.2 | 0.00 | 0.00 | 0.00 | 80 | 1016.2 |
| 20260902113443 | 16 | 128 | 1.6 | 6.4 | 0.00 | 0.00 | 0.00 | 80 | 1016.2 |
| 20260902112928 | 16 | 120 | 3.2 | 6.4 | 0.00 | 0.00 | 0.00 | 80 | 1016.1 |
| 20260902112432 | 16 | 177 | 1.6 | 4.8 | 0.00 | 0.00 | 0.00 | 80 | 1016.1 |
| 20260902111937 | 16 | 107 | 1.6 | 4.8 | 0.00 | 0.00 | 0.00 | 80 | 1016.2 |
| 20260902111421 | 16 | 134 | 0.0 | 3.2 | 0.00 | 0.00 | 0.00 | 80 | 1016.3 |
| 20260902110924 | 16 | 177 | 1.6 | 3.2 | 0.00 | 0.00 | 0.00 | 80 | 1016.2 |
| 20260902110429 | 16 | 88 | 0.0 | 4.8 | 0.00 | 0.00 | 0.00 | 80 | 1016.2 |
| 20260902105932 | 16 | 222 | 1.6 | 4.8 | 0.00 | 0.00 | 0.00 | 80 | 1016.3 |
| 20260902105418 | 16 | 134 | 1.6 | 3.2 | 0.00 | 0.00 | 0.00 | 80 | 1016.3 |
| 20260902104924 | 16 | 151 | 1.6 | 3.2 | 0.00 | 0.00 | 0.00 | 80 | 1016.3 |
| 20260902104458 | 16 | 116 | 1.6 | 3.2 | 0.00 | 0.00 | 0.00 | 80 | 1016.4 |
| 20260902103925 | 16 | 75 | 1.6 | 3.2 | 0.00 | 0.00 | 0.00 | 80 | 1016.4 |
| 20260902103426 | 16 | 88 | 1.6 | 3.2 | 0.00 | 0.00 | 0.00 | 80 | 1016.4 |
| 20260902102932 | 16 | 112 | 1.6 | 4.8 | 0.00 | 0.00 | 0.00 | 80 | 1016.4 |
| 20260902102447 | 16 | 156 | 1.6 | 4.8 | 0.00 | 0.00 | 0.00 | 80 | 1016.4 |
| 20260902101928 | 16 | 138 | 3.2 | 4.8 | 0.00 | 0.00 | 0.00 | 80 | 1016.3 |
| 20260902101435 | 16 | 127 | 3.2 | 4.8 | 0.00 | 0.00 | 0.00 | 80 | 1016.3 |
| 20260902100917 | 16 | 123 | 3.2 | 4.8 | 0.00 | 0.00 | 0.00 | 80 | 1016.3 |
| 20260902100423 | 16 | 112 | 3.2 | 4.8 | 0.00 | 0.00 | 0.00 | 80 | 1016.3 |
| 20260902095923 | 16 | 99 | 1.6 | 8.0 | 0.00 | 0.00 | 0.00 | 80 | 1016.3 |
| 20260902095429 | 16 | 104 | 4.8 | 8.0 | 0.00 | 0.00 | 0.00 | 80 | 1016.3 |
| 20260902094947 | 16 | 147 | 1.6 | 6.4 | 0.00 | 0.00 | 0.00 | 80 | 1016.3 |
| 20260902094434 | 16 | 222 | 1.6 | 8.0 | 0.00 | 0.00 | 0.00 | 80 | 1016.3 |
| 20260902093918 | 16 | 212 | 3.2 | 12.9 | 0.00 | 0.00 | 0.00 | 80 | 1016.3 |
| 20260902093423 | 16 | 235 | 4.8 | 14.5 | 0.00 | 0.00 | 0.00 | 80 | 1016.3 |
| 20260902092922 | 16 | 196 | 4.8 | 14.5 | 0.00 | 0.00 | 0.00 | 80 | 1016.3 |
| 20260902092426 | 16 | 215 | 6.4 | 12.9 | 0.00 | 0.00 | 0.00 | 80 | 1016.2 |
| 20260902091929 | 16 | 211 | 4.8 | 9.7 | 0.00 | 0.00 | 0.00 | 81 | 1016.2 |
| 20260902091432 | 16 | 230 | 6.4 | 9.7 | 0.00 | 0.00 | 0.00 | 81 | 1016.3 |
| 20260902090936 | 16 | 239 | 3.2 | 9.7 | 0.00 | 0.00 | 0.00 | 81 | 1016.3 |
| 20260902090419 | 16 | 240 | 3.2 | 9.7 | 0.00 | 0.00 | 0.00 | 81 | 1016.4 |
| 20260902085923 | 16 | 236 | 4.8 | 9.7 | 0.00 | 0.00 | 0.00 | 81 | 1016.5 |
| 20260902085446 | 16 | 259 | 3.2 | 8.0 | 0.00 | 0.00 | 0.00 | 81 | 1016.5 |
| 20260902084930 | 16 | 244 | 3.2 | 9.7 | 0.00 | 0.00 | 0.00 | 81 | 1016.5 |
| 20260902084433 | 16 | 212 | 3.2 | 9.7 | 0.00 | 0.00 | 0.00 | 81 | 1016.5 |
| 20260902083935 | 16 | 268 | 3.2 | 11.3 | 0.00 | 0.00 | 0.00 | 81 | 1016.5 |
| 20260902083420 | 16 | 196 | 4.8 | 9.7 | 0.00 | 0.00 | 0.00 | 81 | 1016.6 |
| 20260902082920 | 16 | 185 | 3.2 | 6.4 | 0.00 | 0.00 | 0.00 | 81 | 1016.7 |
| 20260902082424 | 16 | 239 | 1.6 | 4.8 | 0.00 | 0.00 | 0.00 | 81 | 1016.7 |
| 20260902081924 | 16 | 222 | 1.6 | 4.8 | 0.00 | 0.00 | 0.00 | 81 | 1016.7 |
| 20260902081431 | 16 | 251 | 1.6 | 6.4 | 0.00 | 0.00 | 0.00 | 81 | 1016.7 |
| 20260902080934 | 16 | 212 | 3.2 | 6.4 | 0.00 | 0.00 | 0.00 | 81 | 1016.6 |
| 20260902080439 | 16 | 232 | 3.2 | 6.4 | 0.00 | 0.00 | 0.00 | 81 | 1016.7 |
| 20260902075941 | 16 | 177 | 1.6 | 6.4 | 0.00 | 0.00 | 0.00 | 81 | 1016.7 |
| 20260902075455 | 16 | 189 | 1.6 | 8.0 | 0.00 | 0.00 | 0.00 | 81 | 1016.7 |
| 20260902074935 | 16 | 209 | 3.2 | 11.3 | 0.00 | 0.00 | 0.00 | 81 | 1016.6 |
| 20260902074421 | 16 | 212 | 6.4 | 11.3 | 0.00 | 0.00 | 0.00 | 81 | 1016.6 |
| 20260902073924 | 16 | 256 | 1.6 | 9.7 | 0.00 | 0.00 | 0.00 | 81 | 1016.6 |
| 20260902073427 | 16 | 184 | 3.2 | 11.3 | 0.00 | 0.00 | 0.00 | 81 | 1016.6 |
| 20260902073017 | 16 | 222 | 4.8 | 11.3 | 0.00 | 0.00 | 0.00 | 81 | 1016.6 |
| 20260902072434 | 16 | 222 | 4.8 | 12.9 | 0.00 | 0.00 | 0.00 | 82 | 1016.6 |
| 20260902071936 | 16 | 231 | 8.0 | 12.9 | 0.00 | 0.00 | 0.00 | 82 | 1016.5 |
| 20260902071420 | 16 | 251 | 6.4 | 12.9 | 0.00 | 0.00 | 0.00 | 82 | 1016.6 |
| 20260902070946 | 16 | 251 | 4.8 | 16.1 | 0.00 | 0.00 | 0.00 | 82 | 1016.7 |
| 20260902070456 | 16 | 240 | 6.4 | 11.3 | 0.00 | 0.00 | 0.00 | 83 | 1016.6 |
| 20260902065932 | 16 | 251 | 6.4 | 14.5 | 0.00 | 0.00 | 0.00 | 83 | 1016.5 |
| 20260902065435 | 16 | 206 | 6.4 | 14.5 | 0.00 | 0.00 | 0.00 | 83 | 1016.5 |
| 20260902064934 | 16 | 232 | 3.2 | 8.0 | 0.00 | 0.00 | 0.00 | 83 | 1016.5 |
| 20260902064437 | 16 | 226 | 3.2 | 8.0 | 0.00 | 0.00 | 0.00 | 83 | 1016.6 |
| 20260902063921 | 16 | 256 | 3.2 | 6.4 | 0.00 | 0.00 | 0.00 | 83 | 1016.5 |
| 20260902063423 | 16 | 212 | 3.2 | 6.4 | 0.00 | 0.00 | 0.00 | 83 | 1016.5 |
| 20260902062947 | 16 | 230 | 1.6 | 4.8 | 0.00 | 0.00 | 0.00 | 83 | 1016.7 |
| 20260902062433 | 16 | 177 | 1.6 | 4.8 | 0.00 | 0.00 | 0.00 | 83 | 1016.6 |
| 20260902061935 | 16 | 88 | 1.6 | 3.2 | 0.00 | 0.00 | 0.00 | 83 | 1016.6 |
| 20260902061437 | 16 | 205 | 1.6 | 4.8 | 0.00 | 0.00 | 0.00 | 83 | 1016.5 |
| 20260902060951 | 16 | 222 | 1.6 | 4.8 | 0.00 | 0.00 | 0.00 | 83 | 1016.6 |
| 20260902060459 | 16 | 215 | 1.6 | 3.2 | 0.00 | 0.00 | 0.00 | 83 | 1016.6 |
| 20260902055924 | 16 | 268 | 1.6 | 3.2 | 0.00 | 0.00 | 0.00 | 83 | 1016.7 |
| 20260902055425 | 16 | 134 | 1.6 | 3.2 | 0.00 | 0.00 | 0.00 | 83 | 1016.6 |
| 20260902054924 | 16 | 123 | 1.6 | 3.2 | 0.00 | 0.00 | 0.00 | 83 | 1016.6 |
| 20260902054429 | 16 | 134 | 1.6 | 3.2 | 0.00 | 0.00 | 0.00 | 83 | 1016.7 |
| 20260902053935 | 16 | 151 | 1.6 | 3.2 | 0.00 | 0.00 | 0.00 | 82 | 1016.6 |
| 20260902053419 | 16 | 116 | 1.6 | 3.2 | 0.00 | 0.00 | 0.00 | 82 | 1016.6 |
| 20260902052920 | 16 | 144 | 1.6 | 3.2 | 0.00 | 0.00 | 0.00 | 82 | 1016.7 |
| 20260902052421 | 16 | 123 | 1.6 | 3.2 | 0.00 | 0.00 | 0.00 | 82 | 1016.6 |
| 20260902051926 | 16 | 151 | 1.6 | 6.4 | 0.00 | 0.00 | 0.00 | 82 | 1016.6 |
| 20260902051427 | 16 | 151 | 3.2 | 6.4 | 0.00 | 0.00 | 0.00 | 82 | 1016.6 |
| 20260902050931 | 16 | 144 | 3.2 | 4.8 | 0.00 | 0.00 | 0.00 | 82 | 1016.7 |
| 20260902050435 | 16 | 148 | 3.2 | 4.8 | 0.00 | 0.00 | 0.00 | 82 | 1016.7 |
| 20260902045939 | 16 | 212 | 1.6 | 8.0 | 0.00 | 0.00 | 0.00 | 82 | 1016.8 |
| 20260902045424 | 16 | 192 | 3.2 | 9.7 | 0.00 | 0.00 | 0.00 | 82 | 1016.8 |
| 20260902044926 | 16 | 217 | 4.8 | 9.7 | 0.00 | 0.00 | 0.00 | 82 | 1016.8 |
| 20260902044432 | 16 | 205 | 3.2 | 8.0 | 0.00 | 0.00 | 0.00 | 82 | 1016.7 |
| 20260902043936 | 16 | 193 | 3.2 | 8.0 | 0.00 | 0.00 | 0.00 | 82 | 1016.8 |
| 20260902043420 | 16 | 213 | 3.2 | 8.0 | 0.00 | 0.00 | 0.00 | 82 | 1016.7 |
| 20260902042922 | 17 | 213 | 3.2 | 9.7 | 0.00 | 0.00 | 0.00 | 82 | 1016.8 |
| 20260902042428 | 17 | 177 | 4.8 | 8.0 | 0.00 | 0.00 | 0.00 | 82 | 1016.7 |
| 20260902041935 | 17 | 240 | 4.8 | 9.7 | 0.00 | 0.00 | 0.00 | 82 | 1016.8 |
| 20260902041436 | 17 | 198 | 3.2 | 9.7 | 0.00 | 0.00 | 0.00 | 82 | 1016.7 |
| 20260902040924 | 17 | 256 | 4.8 | 9.7 | 0.00 | 0.00 | 0.00 | 82 | 1016.7 |
| 20260902040458 | 17 | 219 | 4.8 | 14.5 | 0.00 | 0.00 | 0.00 | 82 | 1016.7 |
| 20260902035920 | 17 | 268 | 8.0 | 14.5 | 0.00 | 0.00 | 0.00 | 82 | 1016.6 |
| 20260902035425 | 17 | 209 | 4.8 | 12.9 | 0.00 | 0.00 | 0.00 | 82 | 1016.6 |
| 20260902034932 | 17 | 261 | 6.4 | 12.9 | 0.00 | 0.00 | 0.00 | 82 | 1016.6 |
| 20260902034418 | 17 | 223 | 6.4 | 12.9 | 0.00 | 0.00 | 0.00 | 82 | 1016.5 |
| 20260902033919 | 17 | 222 | 4.8 | 14.5 | 0.00 | 0.00 | 0.00 | 82 | 1016.5 |
| 20260902033424 | 17 | 220 | 6.4 | 16.1 | 0.00 | 0.00 | 0.00 | 82 | 1016.4 |
| 20260902032926 | 17 | 212 | 8.0 | 16.1 | 0.00 | 0.00 | 0.00 | 82 | 1016.4 |
| 20260902032434 | 17 | 313 | 6.4 | 11.3 | 0.00 | 0.00 | 0.00 | 82 | 1016.3 |
| 20260902031918 | 17 | 282 | 3.2 | 17.7 | 0.00 | 0.00 | 0.00 | 82 | 1016.4 |
| 20260902031423 | 17 | 323 | 4.8 | 17.7 | 0.00 | 0.00 | 0.00 | 82 | 1016.5 |
| 20260902030929 | 17 | 259 | 9.7 | 16.1 | 0.00 | 0.00 | 0.00 | 82 | 1016.4 |
| 20260902030429 | 17 | 215 | 6.4 | 11.3 | 0.00 | 0.00 | 0.00 | 82 | 1016.4 |
| 20260902025934 | 17 | 225 | 6.4 | 19.3 | 0.00 | 0.00 | 0.00 | 82 | 1016.4 |
| 20260902025447 | 17 | 239 | 11.3 | 19.3 | 0.00 | 0.00 | 0.00 | 81 | 1016.4 |
| 20260902024931 | 17 | 242 | 3.2 | 14.5 | 0.00 | 0.00 | 0.00 | 81 | 1016.3 |
| 20260902024437 | 17 | 235 | 8.0 | 16.1 | 0.00 | 0.00 | 0.00 | 81 | 1016.4 |
| 20260902023923 | 17 | 275 | 4.8 | 17.7 | 0.00 | 0.00 | 0.00 | 81 | 1016.3 |
| 20260902023444 | 17 | 268 | 9.7 | 17.7 | 0.00 | 0.00 | 0.00 | 80 | 1016.3 |
| 20260902022924 | 17 | 242 | 8.0 | 16.1 | 0.00 | 0.00 | 0.00 | 80 | 1016.3 |
| 20260902022429 | 17 | 268 | 4.8 | 16.1 | 0.00 | 0.00 | 0.00 | 80 | 1016.4 |
| 20260902021936 | 17 | 261 | 6.4 | 12.9 | 0.00 | 0.00 | 0.00 | 80 | 1016.4 |
| 20260902021452 | 17 | 200 | 8.0 | 17.7 | 0.00 | 0.00 | 0.00 | 80 | 1016.4 |
| 20260902020937 | 17 | 204 | 11.3 | 17.7 | 0.00 | 0.00 | 0.00 | 79 | 1016.2 |
| 20260902020421 | 17 | 235 | 8.0 | 16.1 | 0.00 | 0.00 | 0.00 | 79 | 1016.3 |
| 20260902015942 | 17 | 200 | 6.4 | 14.5 | 0.00 | 0.00 | 0.00 | 78 | 1016.3 |
| 20260902015457 | 17 | 251 | 8.0 | 14.5 | 0.00 | 0.00 | 0.00 | 78 | 1016.3 |
| 20260902014938 | 17 | 237 | 4.8 | 12.9 | 0.00 | 0.00 | 0.00 | 77 | 1016.3 |
| 20260902014452 | 17 | 252 | 6.4 | 16.1 | 0.00 | 0.00 | 0.00 | 76 | 1016.3 |
| 20260902013936 | 17 | 227 | 9.7 | 17.7 | 0.00 | 0.00 | 0.00 | 75 | 1016.3 |
| 20260902013440 | 17 | 222 | 8.0 | 19.3 | 0.00 | 0.00 | 0.00 | 75 | 1016.3 |
| 20260902012959 | 18 | 229 | 12.9 | 22.5 | 0.00 | 0.00 | 0.00 | 74 | 1016.3 |
| 20260902012422 | 18 | 221 | 9.7 | 24.1 | 0.00 | 0.00 | 0.00 | 74 | 1016.2 |
| 20260902011927 | 18 | 217 | 11.3 | 24.1 | 0.00 | 0.00 | 0.00 | 74 | 1016.1 |
| 20260902011433 | 18 | 211 | 12.9 | 22.5 | 0.00 | 0.00 | 0.00 | 73 | 1016.1 |
| 20260902010940 | 18 | 228 | 11.3 | 20.9 | 0.00 | 0.00 | 0.00 | 74 | 1016.1 |
| 20260902010435 | 18 | 221 | 14.5 | 20.9 | 0.00 | 0.00 | 0.00 | 74 | 1016.1 |
| 20260902005920 | 18 | 268 | 8.0 | 29.0 | 0.00 | 0.00 | 0.00 | 74 | 1016.1 |
| 20260902005420 | 18 | 212 | 14.5 | 29.0 | 0.00 | 0.00 | 0.00 | 73 | 1016.1 |
| 20260902004925 | 18 | 258 | 12.9 | 24.1 | 0.00 | 0.00 | 0.00 | 73 | 1016.2 |
| 20260902004428 | 18 | 236 | 9.7 | 20.9 | 0.00 | 0.00 | 0.00 | 73 | 1016.1 |
| 20260902003934 | 18 | 181 | 9.7 | 24.1 | 0.00 | 0.00 | 0.00 | 73 | 1016.0 |
| 20260902003435 | 18 | 205 | 9.7 | 24.1 | 0.00 | 0.00 | 0.00 | 73 | 1016.0 |
| 20260902002918 | 18 | 240 | 11.3 | 27.4 | 0.00 | 0.00 | 0.00 | 73 | 1016.0 |
| 20260902002442 | 18 | 198 | 11.3 | 27.4 | 0.00 | 0.00 | 0.00 | 73 | 1016.0 |
| 20260902001925 | 18 | 215 | 12.9 | 22.5 | 0.00 | 0.00 | 0.00 | 72 | 1016.0 |
| 20260902001455 | 18 | 221 | 14.5 | 22.5 | 0.00 | 0.00 | 0.00 | 71 | 1016.1 |
| 20260902000946 | 18 | 249 | 12.9 | 24.1 | 0.00 | 0.00 | 0.00 | 72 | 1016.1 |
| 20260902000429 | 18 | 241 | 14.5 | 25.7 | 0.00 | 0.00 | 0.00 | 72 | 1016.1 |
| 20260901235931 | 18 | 217 | 11.3 | 27.4 | 0.00 | 0.00 | 0.00 | 72 | 1016.1 |
| 20260901235438 | 18 | 225 | 14.5 | 29.0 | 0.00 | 0.00 | 0.00 | 72 | 1016.1 |
| 20260901234936 | 18 | 251 | 14.5 | 29.0 | 0.00 | 0.00 | 0.00 | 72 | 1016.2 |
| 20260901234419 | 18 | 202 | 9.7 | 25.7 | 0.00 | 0.00 | 0.00 | 73 | 1016.1 |
| 20260901233924 | 18 | 215 | 11.3 | 24.1 | 0.00 | 0.00 | 0.00 | 73 | 1016.2 |
| 20260901233429 | 18 | 225 | 14.5 | 24.1 | 0.00 | 0.00 | 0.00 | 73 | 1016.2 |
| 20260901232934 | 18 | 246 | 8.0 | 29.0 | 0.00 | 0.00 | 0.00 | 73 | 1016.2 |
| 20260901232420 | 19 | 226 | 12.9 | 22.5 | 0.00 | 0.00 | 0.00 | 73 | 1016.3 |
| 20260901231923 | 18 | 268 | 8.0 | 24.1 | 0.00 | 0.00 | 0.00 | 73 | 1016.3 |
| 20260901231423 | 18 | 219 | 12.9 | 24.1 | 0.00 | 0.00 | 0.00 | 73 | 1016.4 |
| 20260901230931 | 19 | 224 | 12.9 | 24.1 | 0.00 | 0.00 | 0.00 | 73 | 1016.4 |
| 20260901230434 | 18 | 223 | 12.9 | 27.4 | 0.00 | 0.00 | 0.00 | 73 | 1016.4 |
| 20260901225918 | 18 | 251 | 16.1 | 27.4 | 0.00 | 0.00 | 0.00 | 72 | 1016.5 |
| 20260901225444 | 18 | 209 | 16.1 | 29.0 | 0.00 | 0.00 | 0.00 | 72 | 1016.5 |
| 20260901224955 | 19 | 240 | 11.3 | 29.0 | 0.00 | 0.00 | 0.00 | 72 | 1016.6 |
| 20260901224419 | 19 | 334 | 9.7 | 20.9 | 0.00 | 0.00 | 0.00 | 71 | 1016.5 |
| 20260901223921 | 20 | 209 | 11.3 | 20.9 | 0.00 | 0.00 | 0.00 | 71 | 1016.6 |
| 20260901223424 | 20 | 227 | 9.7 | 22.5 | 0.00 | 0.00 | 0.00 | 72 | 1016.6 |
| 20260901222927 | 19 | 275 | 12.9 | 25.7 | 0.00 | 0.00 | 0.00 | 72 | 1016.6 |
| 20260901222433 | 19 | 237 | 9.7 | 25.7 | 0.00 | 0.00 | 0.00 | 72 | 1016.5 |
| 20260901221936 | 19 | 283 | 12.9 | 27.4 | 0.00 | 0.00 | 0.00 | 72 | 1016.6 |
| 20260901221420 | 19 | 220 | 16.1 | 27.4 | 0.00 | 0.00 | 0.00 | 72 | 1016.6 |
| 20260901220926 | 19 | 227 | 9.7 | 25.7 | 0.00 | 0.00 | 0.00 | 72 | 1016.6 |
| 20260901220454 | 19 | 214 | 17.7 | 25.7 | 0.00 | 0.00 | 0.00 | 72 | 1016.6 |
| 20260901215937 | 19 | 268 | 11.3 | 22.5 | 0.00 | 0.00 | 0.00 | 72 | 1016.6 |
| 20260901215441 | 19 | 294 | 14.5 | 22.5 | 0.00 | 0.00 | 0.00 | 72 | 1016.5 |
| 20260901214952 | 20 | 295 | 14.5 | 25.7 | 0.00 | 0.00 | 0.00 | 71 | 1016.5 |
| 20260901214437 | 20 | 242 | 11.3 | 25.7 | 0.00 | 0.00 | 0.00 | 70 | 1016.5 |
| 20260901213940 | 20 | 271 | 9.7 | 22.5 | 0.00 | 0.00 | 0.00 | 70 | 1016.5 |
| 20260901213438 | 20 | 231 | 12.9 | 22.5 | 0.00 | 0.00 | 0.00 | 70 | 1016.5 |
| 20260901212951 | 20 | 263 | 11.3 | 22.5 | 0.00 | 0.00 | 0.00 | 70 | 1016.6 |
| 20260901212433 | 20 | 296 | 11.3 | 24.1 | 0.00 | 0.00 | 0.00 | 71 | 1016.6 |
| 20260901211918 | 19 | 237 | 9.7 | 24.1 | 0.00 | 0.00 | 0.00 | 72 | 1016.5 |
| 20260901211442 | 19 | 226 | 8.0 | 19.3 | 0.00 | 0.00 | 0.00 | 71 | 1016.6 |
| 20260901210925 | 19 | 235 | 8.0 | 19.3 | 0.00 | 0.00 | 0.00 | 71 | 1016.6 |
| 20260901210425 | 19 | 271 | 9.7 | 22.5 | 0.00 | 0.00 | 0.00 | 70 | 1016.5 |
| 20260901205930 | 19 | 322 | 11.3 | 22.5 | 0.00 | 0.00 | 0.00 | 71 | 1016.4 |
| 20260901205435 | 19 | 271 | 11.3 | 22.5 | 0.00 | 0.00 | 0.00 | 71 | 1016.4 |
| 20260901204948 | 19 | 275 | 11.3 | 20.9 | 0.00 | 0.00 | 0.00 | 70 | 1016.5 |
| 20260901204434 | 19 | 281 | 9.7 | 22.5 | 0.00 | 0.00 | 0.00 | 70 | 1016.5 |
| 20260901203918 | 19 | 252 | 12.9 | 22.5 | 0.00 | 0.00 | 0.00 | 70 | 1016.6 |
| 20260901203423 | 18 | 247 | 9.7 | 19.3 | 0.00 | 0.00 | 0.00 | 71 | 1016.5 |
| 20260901202921 | 18 | 261 | 11.3 | 19.3 | 0.00 | 0.00 | 0.00 | 71 | 1016.5 |
| 20260901202426 | 19 | 239 | 9.7 | 20.9 | 0.00 | 0.00 | 0.00 | 70 | 1016.6 |
| 20260901201931 | 19 | 220 | 9.7 | 22.5 | 0.00 | 0.00 | 0.00 | 71 | 1016.6 |
| 20260901201436 | 19 | 273 | 11.3 | 22.5 | 0.00 | 0.00 | 0.00 | 73 | 1016.6 |
| 20260901200921 | 18 | 273 | 11.3 | 20.9 | 0.00 | 0.00 | 0.00 | 72 | 1016.6 |
| 20260901200428 | 19 | 230 | 12.9 | 22.5 | 0.00 | 0.00 | 0.00 | 72 | 1016.6 |
| 20260901195929 | 18 | 234 | 9.7 | 24.1 | 0.00 | 0.00 | 0.00 | 71 | 1016.6 |
| 20260901195432 | 18 | 196 | 11.3 | 24.1 | 0.00 | 0.00 | 0.00 | 70 | 1016.6 |
| 20260901194935 | 18 | 207 | 11.3 | 25.7 | 0.00 | 0.00 | 0.00 | 70 | 1016.6 |
| 20260901194420 | 18 | 212 | 12.9 | 24.1 | 0.00 | 0.00 | 0.00 | 71 | 1016.7 |
| 20260901193952 | 18 | 209 | 11.3 | 24.1 | 0.00 | 0.00 | 0.00 | 72 | 1016.7 |
| 20260901193438 | 18 | 233 | 14.5 | 24.1 | 0.00 | 0.00 | 0.00 | 72 | 1016.6 |
| 20260901192919 | 18 | 238 | 11.3 | 22.5 | 0.00 | 0.00 | 0.00 | 73 | 1016.8 |
| 20260901192422 | 18 | 282 | 9.7 | 22.5 | 0.00 | 0.00 | 0.00 | 72 | 1016.8 |
| 20260901191921 | 18 | 222 | 8.0 | 22.5 | 0.00 | 0.00 | 0.00 | 73 | 1016.9 |
| 20260901191427 | 18 | 238 | 11.3 | 22.5 | 0.00 | 0.00 | 0.00 | 73 | 1016.8 |
| 20260901190932 | 18 | 211 | 9.7 | 22.5 | 0.00 | 0.00 | 0.00 | 74 | 1016.9 |
| 20260901190427 | 18 | 222 | 16.1 | 22.5 | 0.00 | 0.00 | 0.00 | 73 | 1016.7 |
| 20260901185922 | 18 | 259 | 9.7 | 22.5 | 0.00 | 0.00 | 0.00 | 73 | 1016.8 |
| 20260901185426 | 18 | 230 | 11.3 | 22.5 | 0.00 | 0.00 | 0.00 | 74 | 1016.9 |
| 20260901184932 | 18 | 222 | 12.9 | 25.7 | 0.00 | 0.00 | 0.00 | 74 | 1016.8 |
| 20260901184433 | 18 | 189 | 11.3 | 17.7 | 0.00 | 0.00 | 0.00 | 74 | 1016.8 |
| 20260901183928 | 18 | 264 | 8.0 | 19.3 | 0.00 | 0.00 | 0.00 | 74 | 1016.8 |
| 20260901183430 | 18 | 221 | 11.3 | 19.3 | 0.00 | 0.00 | 0.00 | 74 | 1016.8 |
| 20260901182934 | 18 | 299 | 6.4 | 16.1 | 0.00 | 0.00 | 0.00 | 74 | 1016.8 |
| 20260901182419 | 18 | 257 | 8.0 | 16.1 | 0.00 | 0.00 | 0.00 | 74 | 1016.8 |
| 20260901181924 | 18 | 249 | 6.4 | 16.1 | 0.00 | 0.00 | 0.00 | 75 | 1016.8 |
| 20260901181428 | 18 | 222 | 11.3 | 16.1 | 0.00 | 0.00 | 0.00 | 74 | 1016.7 |
| 20260901180929 | 18 | 207 | 8.0 | 16.1 | 0.00 | 0.00 | 0.00 | 73 | 1016.8 |
| 20260901180435 | 18 | 213 | 8.0 | 16.1 | 0.00 | 0.00 | 0.00 | 74 | 1016.7 |
| 20260901175947 | 18 | 227 | 9.7 | 16.1 | 0.00 | 0.00 | 0.00 | 75 | 1016.7 |
| 20260901175430 | 18 | 214 | 3.2 | 16.1 | 0.00 | 0.00 | 0.00 | 77 | 1016.8 |
| 20260901174931 | 17 | 183 | 6.4 | 16.1 | 0.00 | 0.00 | 0.00 | 77 | 1016.7 |
| 20260901174435 | 17 | 231 | 8.0 | 19.3 | 0.00 | 0.00 | 0.00 | 76 | 1016.7 |
| 20260901173937 | 18 | 203 | 8.0 | 14.5 | 0.00 | 0.00 | 0.00 | 77 | 1016.6 |
| 20260901173447 | 17 | 183 | 8.0 | 17.7 | 0.00 | 0.00 | 0.00 | 77 | 1016.5 |
| 20260901172929 | 17 | 212 | 9.7 | 17.7 | 0.00 | 0.00 | 0.00 | 77 | 1016.5 |
| 20260901172433 | 17 | 196 | 6.4 | 17.7 | 0.00 | 0.00 | 0.00 | 77 | 1016.5 |
| 20260901171938 | 17 | 215 | 8.0 | 16.1 | 0.00 | 0.00 | 0.00 | 78 | 1016.5 |
| 20260901171438 | 17 | 244 | 4.8 | 19.3 | 0.00 | 0.00 | 0.00 | 78 | 1016.4 |
| 20260901170918 | 17 | 222 | 8.0 | 12.9 | 0.00 | 0.00 | 0.00 | 78 | 1016.4 |
| 20260901170433 | 17 | 194 | 6.4 | 17.7 | 0.00 | 0.00 | 0.00 | 78 | 1016.4 |
| 20260901165935 | 17 | 196 | 9.7 | 17.7 | 0.00 | 0.00 | 0.00 | 78 | 1016.4 |
| 20260901165437 | 17 | 254 | 6.4 | 17.7 | 0.00 | 0.00 | 0.00 | 78 | 1016.3 |
| 20260901164919 | 17 | 284 | 9.7 | 14.5 | 0.00 | 0.00 | 0.00 | 79 | 1016.2 |
| 20260901164423 | 17 | 268 | 4.8 | 17.7 | 0.00 | 0.00 | 0.00 | 79 | 1016.2 |
| 20260901163925 | 17 | 286 | 9.7 | 17.7 | 0.00 | 0.00 | 0.00 | 79 | 1016.2 |
| 20260901163427 | 17 | 360 | 8.0 | 14.5 | 0.00 | 0.00 | 0.00 | 80 | 1016.2 |
| 20260901162926 | 17 | 283 | 6.4 | 12.9 | 0.00 | 0.00 | 0.00 | 80 | 1016.1 |
| 20260901162430 | 17 | 214 | 9.7 | 12.9 | 0.00 | 0.00 | 0.00 | 81 | 1016.1 |